Rouyn Airport, Quebec

9:21 AM ADT on June 29, 2017 (GMT -0300)
Rouyn Airport

Weather History for CYUY - January, 2013

Change the Weather History Date:

Saturday, January 5, 2013

  Actual Average Record
Temperature  
Mean Temperature 2 °F -  
Max Temperature 14 °F - - ()
Min Temperature -11 °F - - ()
Degree Days  
Heating Degree Days 64    
Moisture  
Dew Point -7 °F    
Average Humidity 72    
Maximum Humidity 84    
Minimum Humidity 56    
Precipitation  
Precipitation 0.00 in - - ()
Sea Level Pressure  
Sea Level Pressure 30.16 in    
Wind  
Wind Speed 7 mph ()    
Max Wind Speed 13 mph    
Max Gust Speed 29 mph    
Visibility 14.0 miles    
Events Snow    
T = Trace of Precipitation, MM = Missing Value Source: Averaged Metar Reports

Daily Weather History Graph

Daily Weather History Graph

Search for Another Location

Airport or City:

Trip Planner

Search our weather history database for the weather conditions in past years. The results will help you decide how hot, cold, wet, or windy it might be!

Date:

Astronomy

Jan. 05, 2013 Rise Set
Actual Time 9:05 AM AST 5:36 PM AST
Civil Twilight 8:29 AM AST 6:12 PM AST
Nautical Twilight 7:49 AM AST 6:52 PM AST
Astronomical Twilight 7:12 AM AST 7:29 PM AST
Moon 1:53 AM AST (1/5) 12:39 PM AST (1/5)
Length of Visible Light 9h 43m
Length of Day
8h 31m
Last Quarter, 44% of the Moon is Illuminated
Jan 5
Last Quarter
Jan 11
New
Jan 18
First Quarter
Jan 27
Full
Feb 3
Last Quarter

Hourly Weather History & Observations

Time (AST) Temp. Windchill Dew Point Humidity Pressure Visibility Wind Dir Wind Speed Gust Speed Precip Events Conditions
12:00 AM 14.0 °F 0.5 °F 6.8 °F 73% 29.85 in 12.0 mi NNW 11.5 mph 21.9 mph N/A Snow Light Snow
1:00 AM 14.0 °F 1.2 °F 6.8 °F 73% 29.89 in 12.0 mi NW 10.4 mph - N/A Snow Light Snow
2:00 AM 8.6 °F -7.0 °F -0.4 °F 67% 29.95 in 12.0 mi NW 12.7 mph 28.8 mph N/A Snow Light Snow
3:00 AM 5.0 °F -9.1 °F -2.2 °F 72% 30.02 in 12.0 mi NW 9.2 mph 23.0 mph N/A Snow Light Snow
4:00 AM 1.4 °F -14.5 °F -4.0 °F 78% 30.09 in 10.0 mi WNW 10.4 mph 18.4 mph N/A Snow Light Snow
5:00 AM -0.4 °F -16.7 °F -7.6 °F 72% 30.15 in 10.0 mi NW 10.4 mph - N/A Snow Snow
6:00 AM -4.0 °F -19.0 °F -11.2 °F 71% 30.19 in 15.0 mi NNW 8.1 mph - N/A   Scattered Clouds
7:00 AM -5.8 °F -14.5 °F -11.2 °F 77% 30.23 in 15.0 mi NW 3.5 mph - N/A   Partly Cloudy
8:00 AM -9.4 °F -18.6 °F -13.0 °F 84% 30.26 in 15.0 mi West 3.5 mph - N/A   Clear
9:00 AM -11.2 °F -23.0 °F -14.8 °F 84% 30.27 in 15.0 mi West 4.6 mph - N/A   Clear
10:00 AM -11.2 °F -24.8 °F -14.8 °F 84% 30.30 in 15.0 mi WSW 5.8 mph - N/A   Clear
11:00 AM -5.8 °F -16.7 °F -13.0 °F 71% 30.32 in 15.0 mi West 4.6 mph - N/A   Clear
12:00 PM -2.2 °F -14.2 °F -11.2 °F 66% 30.31 in 15.0 mi SW 5.8 mph - N/A   Partly Cloudy
1:00 PM -2.2 °F - -11.2 °F 66% 30.27 in 15.0 mi SSW 2.3 mph - N/A   Partly Cloudy
2:00 PM 1.4 °F -9.9 °F -9.4 °F 61% 30.25 in 15.0 mi SW 5.8 mph - N/A   Partly Cloudy
3:00 PM 3.2 °F -6.2 °F -7.6 °F 61% 30.23 in 15.0 mi SSW 4.6 mph - N/A   Partly Cloudy
4:00 PM 6.8 °F -4.8 °F -5.8 °F 56% 30.22 in 15.0 mi SW 6.9 mph - N/A   Partly Cloudy
5:00 PM 5.0 °F -5.6 °F -5.8 °F 61% 30.20 in 15.0 mi South 5.8 mph - N/A   Partly Cloudy
6:00 PM 1.4 °F -9.9 °F -4.0 °F 78% 30.19 in 15.0 mi South 5.8 mph - N/A   Scattered Clouds
7:00 PM -0.4 °F -12.0 °F -5.8 °F 78% 30.18 in 15.0 mi South 5.8 mph - N/A   Partly Cloudy
8:00 PM -0.4 °F -10.4 °F -5.8 °F 78% 30.17 in 12.0 mi South 4.6 mph - N/A   Partly Cloudy
9:00 PM -0.4 °F -10.4 °F -5.8 °F 78% 30.15 in 15.0 mi SSE 4.6 mph - N/A   Mostly Cloudy
10:00 PM 1.4 °F -12.5 °F -4.0 °F 78% 30.12 in 15.0 mi SSE 8.1 mph - N/A   Overcast
11:00 PM 3.2 °F -4.2 °F -4.0 °F 72% 30.10 in 15.0 mi SSW 3.5 mph - N/A   Overcast